Time,TemperatureF,DewpointF,PressureIn,WindDirection,WindDirectionDegrees,WindSpeedMPH,WindSpeedGustMPH,Humidity,HourlyPrecipIn,Conditions,Clouds,dailyrainin,SoftwareType,DateUTC
2013-03-27 00:00:00,49.1,35.8,30.07,NNW,338,0.0,0.0,60,0.00,,---,0.00,VWS V14.00,2013-03-27 04:00:00,
2013-03-27 00:05:00,48.9,35.6,30.07,NNW,338,0.0,0.0,60,0.00,,---,0.00,VWS V14.00,2013-03-27 04:05:00,
2013-03-27 00:10:00,48.9,35.6,30.06,NNW,338,0.0,0.0,60,0.00,,---,0.00,VWS V14.00,2013-03-27 04:10:00,
2013-03-27 00:15:00,48.9,35.6,30.06,NNW,338,0.0,0.0,60,0.00,,---,0.00,VWS V14.00,2013-03-27 04:15:00,
2013-03-27 00:20:00,49.1,36.2,30.06,NNW,338,0.0,0.0,61,0.00,,---,0.00,VWS V14.00,2013-03-27 04:20:00,
2013-03-27 00:25:00,48.9,36.1,30.06,NNW,338,0.0,0.0,61,0.00,,---,0.00,VWS V14.00,2013-03-27 04:25:00,
2013-03-27 00:30:00,48.7,35.9,30.06,NNW,338,0.0,0.0,61,0.00,,---,0.00,VWS V14.00,2013-03-27 04:30:00,
2013-03-27 00:35:00,48.5,35.7,30.06,NNW,338,0.0,0.0,61,0.00,,---,0.00,VWS V14.00,2013-03-27 04:35:00,
2013-03-27 00:40:00,48.3,35.5,30.06,NNW,338,0.0,0.0,61,0.00,,---,0.00,VWS V14.00,2013-03-27 04:40:00,
2013-03-27 00:45:00,48.3,35.9,30.06,NNW,338,0.0,0.0,62,0.00,,---,0.00,VWS V14.00,2013-03-27 04:45:00,
2013-03-27 00:50:00,48.5,36.1,30.06,NNW,338,0.0,0.0,62,0.00,,---,0.00,VWS V14.00,2013-03-27 04:50:00,
2013-03-27 00:55:00,48.5,36.1,30.06,NNW,338,0.0,0.0,62,0.00,,---,0.00,VWS V14.00,2013-03-27 04:55:00,
2013-03-27 01:00:00,48.3,35.9,30.06,NNW,338,0.0,0.0,62,0.00,,---,0.00,VWS V14.00,2013-03-27 05:00:00,
2013-03-27 01:05:00,48.0,35.6,30.06,NNW,338,0.0,0.0,62,0.00,,---,0.00,VWS V14.00,2013-03-27 05:05:00,
2013-03-27 01:10:00,48.0,36.0,30.06,NNW,338,0.0,0.0,63,0.00,,---,0.00,VWS V14.00,2013-03-27 05:10:00,
2013-03-27 01:15:00,48.0,36.0,30.06,NNW,338,0.0,0.0,63,0.00,,---,0.00,VWS V14.00,2013-03-27 05:15:00,
2013-03-27 01:20:00,47.8,35.8,30.06,NNW,338,0.0,0.0,63,0.00,,---,0.00,VWS V14.00,2013-03-27 05:20:00,
2013-03-27 01:25:00,47.6,35.6,30.06,NNW,338,0.0,0.0,63,0.00,,---,0.00,VWS V14.00,2013-03-27 05:25:00,
2013-03-27 01:30:00,47.4,35.8,30.07,NNW,338,0.0,0.0,64,0.00,,---,0.00,VWS V14.00,2013-03-27 05:30:00,
2013-03-27 01:35:00,47.4,35.8,30.07,NNW,338,0.0,0.0,64,0.00,,---,0.00,VWS V14.00,2013-03-27 05:35:00,
2013-03-27 01:40:00,47.3,35.8,30.07,NNW,338,0.0,0.0,64,0.00,,---,0.00,VWS V14.00,2013-03-27 05:40:00,
2013-03-27 01:45:00,47.1,36.0,30.07,NNW,338,0.0,0.0,65,0.00,,---,0.00,VWS V14.00,2013-03-27 05:45:00,
2013-03-27 01:50:00,46.7,35.6,30.06,NNW,338,0.0,0.0,65,0.00,,---,0.00,VWS V14.00,2013-03-27 05:50:00,
2013-03-27 01:55:00,46.5,35.4,30.06,NNW,338,0.0,0.0,65,0.00,,---,0.00,VWS V14.00,2013-03-27 05:55:00,
2013-03-27 02:00:00,46.5,35.8,30.06,NNW,338,0.0,0.0,66,0.00,,---,0.00,VWS V14.00,2013-03-27 06:00:00,
2013-03-27 02:05:00,46.4,35.7,30.06,NNW,338,0.0,0.0,66,0.00,,---,0.00,VWS V14.00,2013-03-27 06:05:00,
2013-03-27 02:10:00,46.2,35.5,30.06,NNW,338,0.0,0.0,66,0.00,,---,0.00,VWS V14.00,2013-03-27 06:10:00,
2013-03-27 02:15:00,46.2,35.5,30.06,ENE,68,0.0,0.0,66,0.00,,---,0.00,VWS V14.00,2013-03-27 06:15:00,
2013-03-27 02:20:00,46.0,35.3,30.06,NE,45,0.0,0.0,66,0.00,,---,0.00,VWS V14.00,2013-03-27 06:20:00,
2013-03-27 02:25:00,46.2,35.5,30.06,NE,45,0.0,0.0,66,0.00,,---,0.00,VWS V14.00,2013-03-27 06:25:00,
2013-03-27 02:30:00,46.5,35.8,30.05,NE,45,2.4,2.4,66,0.00,,---,0.00,VWS V14.00,2013-03-27 06:30:00,
2013-03-27 02:35:00,46.9,35.8,30.05,NE,45,2.2,2.2,65,0.00,,---,0.00,VWS V14.00,2013-03-27 06:35:00,
2013-03-27 02:40:00,47.3,35.4,30.05,NE,45,0.0,0.0,63,0.00,,---,0.00,VWS V14.00,2013-03-27 06:40:00,
2013-03-27 02:45:00,47.4,35.0,30.05,NE,45,0.0,0.0,62,0.00,,---,0.00,VWS V14.00,2013-03-27 06:45:00,
2013-03-27 02:50:00,47.8,35.4,30.05,ENE,68,3.8,3.8,62,0.00,,---,0.00,VWS V14.00,2013-03-27 06:50:00,
2013-03-27 02:55:00,48.0,35.2,30.05,NE,45,0.0,0.0,61,0.00,,---,0.00,VWS V14.00,2013-03-27 06:55:00,
2013-03-27 03:00:00,48.0,35.2,30.05,NE,45,1.1,1.1,61,0.00,,---,0.00,VWS V14.00,2013-03-27 07:00:00,
2013-03-27 03:05:00,48.0,34.8,30.05,NE,45,0.0,0.0,60,0.00,,---,0.00,VWS V14.00,2013-03-27 07:05:00,
2013-03-27 03:10:00,48.0,34.4,30.05,NE,45,2.9,2.9,59,0.00,,---,0.00,VWS V14.00,2013-03-27 07:10:00,
2013-03-27 03:15:00,48.2,34.1,30.05,NE,45,2.6,2.6,58,0.00,,---,0.00,VWS V14.00,2013-03-27 07:15:00,
2013-03-27 03:20:00,48.2,34.1,30.05,NNE,22,0.0,0.0,58,0.00,,---,0.00,VWS V14.00,2013-03-27 07:20:00,
2013-03-27 03:25:00,48.3,34.2,30.05,NE,45,3.3,3.3,58,0.00,,---,0.00,VWS V14.00,2013-03-27 07:25:00,
2013-03-27 03:30:00,48.3,34.2,30.05,NE,45,0.0,0.0,58,0.00,,---,0.00,VWS V14.00,2013-03-27 07:30:00,
2013-03-27 03:35:00,48.3,33.8,30.05,ENE,68,2.4,2.4,57,0.00,,---,0.00,VWS V14.00,2013-03-27 07:35:00,
2013-03-27 03:40:00,48.3,33.8,30.04,ENE,68,2.2,2.2,57,0.00,,---,0.00,VWS V14.00,2013-03-27 07:40:00,
2013-03-27 03:45:00,48.3,33.8,30.04,ENE,68,2.4,2.4,57,0.00,,---,0.00,VWS V14.00,2013-03-27 07:45:00,
2013-03-27 03:50:00,48.3,33.8,30.04,NE,45,3.3,3.3,57,0.00,,---,0.00,VWS V14.00,2013-03-27 07:50:00,
2013-03-27 03:55:00,48.3,33.3,30.04,NE,45,2.2,2.2,56,0.00,,---,0.00,VWS V14.00,2013-03-27 07:55:00,
2013-03-27 04:00:00,48.3,33.3,30.04,NE,45,0.6,0.6,56,0.00,,---,0.00,VWS V14.00,2013-03-27 08:00:00,
2013-03-27 04:05:00,48.3,33.3,30.04,ENE,68,3.3,3.3,56,0.00,,---,0.00,VWS V14.00,2013-03-27 08:05:00,
2013-03-27 04:10:00,48.3,33.3,30.05,NE,45,6.0,6.0,56,0.00,,---,0.00,VWS V14.00,2013-03-27 08:10:00,
2013-03-27 04:15:00,48.3,32.9,30.05,NE,45,8.2,8.2,55,0.00,,---,0.00,VWS V14.00,2013-03-27 08:15:00,
2013-03-27 04:20:00,48.3,32.9,30.05,NE,45,0.0,0.0,55,0.00,,---,0.00,VWS V14.00,2013-03-27 08:20:00,
2013-03-27 04:25:00,48.3,32.9,30.05,NE,45,2.6,2.6,55,0.00,,---,0.00,VWS V14.00,2013-03-27 08:25:00,
2013-03-27 04:30:00,48.2,32.8,30.05,NE,45,7.3,7.3,55,0.00,,---,0.00,VWS V14.00,2013-03-27 08:30:00,
2013-03-27 04:35:00,48.3,32.9,30.05,NE,45,3.3,3.3,55,0.00,,---,0.00,VWS V14.00,2013-03-27 08:35:00,
2013-03-27 04:40:00,48.2,32.8,30.05,North,0,0.0,0.0,55,0.00,,---,0.00,VWS V14.00,2013-03-27 08:40:00,
2013-03-27 04:45:00,48.2,32.8,30.05,NE,45,0.0,0.0,55,0.00,,---,0.00,VWS V14.00,2013-03-27 08:45:00,
2013-03-27 04:50:00,48.0,32.6,30.05,ENE,68,5.3,5.3,55,0.00,,---,0.00,VWS V14.00,2013-03-27 08:50:00,
2013-03-27 04:55:00,48.0,32.6,30.05,North,0,0.0,0.0,55,0.00,,---,0.00,VWS V14.00,2013-03-27 08:55:00,
2013-03-27 05:00:00,48.0,33.1,30.05,NE,45,2.4,2.4,56,0.00,,---,0.00,VWS V14.00,2013-03-27 09:00:00,
2013-03-27 05:05:00,48.0,33.1,30.05,NE,45,0.0,0.0,56,0.00,,---,0.00,VWS V14.00,2013-03-27 09:05:00,
2013-03-27 05:10:00,47.8,32.9,30.05,NE,45,0.0,0.0,56,0.00,,---,0.00,VWS V14.00,2013-03-27 09:10:00,
2013-03-27 05:15:00,47.8,32.9,30.05,NE,45,0.0,0.0,56,0.00,,---,0.00,VWS V14.00,2013-03-27 09:15:00,
2013-03-27 05:20:00,47.8,32.9,30.05,ENE,68,2.9,2.9,56,0.00,,---,0.00,VWS V14.00,2013-03-27 09:20:00,
2013-03-27 05:25:00,47.8,32.9,30.05,NE,45,2.2,2.2,56,0.00,,---,0.00,VWS V14.00,2013-03-27 09:25:00,
2013-03-27 05:30:00,47.6,32.7,30.06,NE,45,3.1,3.1,56,0.00,,---,0.00,VWS V14.00,2013-03-27 09:30:00,
2013-03-27 05:35:00,47.6,33.1,30.06,NE,45,0.0,0.0,57,0.00,,---,0.00,VWS V14.00,2013-03-27 09:35:00,
2013-03-27 05:40:00,47.4,33.0,30.06,NE,45,0.0,0.0,57,0.00,,---,0.00,VWS V14.00,2013-03-27 09:40:00,
2013-03-27 05:45:00,47.4,33.0,30.06,NE,45,0.0,0.0,57,0.00,,---,0.00,VWS V14.00,2013-03-27 09:45:00,
2013-03-27 05:50:00,47.4,33.0,30.06,NE,45,0.0,0.0,57,0.00,,---,0.00,VWS V14.00,2013-03-27 09:50:00,
2013-03-27 05:55:00,47.4,33.0,30.06,NE,45,0.0,0.0,57,0.00,,---,0.00,VWS V14.00,2013-03-27 09:55:00,
2013-03-27 06:00:00,47.3,33.3,30.06,NE,45,0.0,0.0,58,0.00,,---,0.00,VWS V14.00,2013-03-27 10:00:00,
2013-03-27 06:04:00,47.1,33.1,30.06,NE,45,0.0,0.0,58,0.00,,---,0.00,VWS V14.00,2013-03-27 10:04:00,
2013-03-27 06:09:00,47.1,33.1,30.06,ENE,68,5.1,5.1,58,0.00,,---,0.00,VWS V14.00,2013-03-27 10:09:00,
2013-03-27 06:14:00,47.1,33.1,30.07,NE,45,0.8,0.8,58,0.00,,---,0.00,VWS V14.00,2013-03-27 10:14:00,
2013-03-27 06:19:00,47.1,33.1,30.07,NE,45,3.3,3.3,58,0.00,,---,0.00,VWS V14.00,2013-03-27 10:19:00,
2013-03-27 06:24:00,46.9,32.5,30.07,ENE,68,3.1,3.1,57,0.00,,---,0.00,VWS V14.00,2013-03-27 10:24:00,
2013-03-27 06:29:00,46.9,32.5,30.07,NE,45,0.0,0.0,57,0.00,,---,0.00,VWS V14.00,2013-03-27 10:29:00,
2013-03-27 06:34:00,46.9,32.5,30.07,NE,45,1.3,1.3,57,0.00,,---,0.00,VWS V14.00,2013-03-27 10:34:00,
2013-03-27 06:39:00,46.7,32.3,30.08,NE,45,4.4,4.4,57,0.00,,---,0.00,VWS V14.00,2013-03-27 10:39:00,
2013-03-27 06:44:00,46.7,31.9,30.07,NNE,22,1.7,1.7,56,0.00,,---,0.00,VWS V14.00,2013-03-27 10:44:00,
2013-03-27 06:49:00,46.5,31.7,30.08,ENE,68,4.0,4.0,56,0.00,,---,0.00,VWS V14.00,2013-03-27 10:49:00,
2013-03-27 06:54:00,46.5,31.7,30.08,NE,45,0.0,0.0,56,0.00,,---,0.00,VWS V14.00,2013-03-27 10:54:00,
2013-03-27 06:59:00,46.2,31.4,30.08,NE,45,1.1,1.1,56,0.00,,---,0.00,VWS V14.00,2013-03-27 10:59:00,
2013-03-27 07:04:00,46.2,31.4,30.08,NE,45,1.1,1.1,56,0.00,,---,0.00,VWS V14.00,2013-03-27 11:04:00,
2013-03-27 07:09:00,46.2,31.8,30.08,NE,45,2.9,2.9,57,0.00,,---,0.00,VWS V14.00,2013-03-27 11:09:00,
2013-03-27 07:14:00,46.0,31.6,30.08,NE,45,7.6,7.6,57,0.00,,---,0.00,VWS V14.00,2013-03-27 11:14:00,
2013-03-27 07:19:00,46.0,31.6,30.09,NE,45,0.0,0.0,57,0.00,,---,0.00,VWS V14.00,2013-03-27 11:19:00,
2013-03-27 07:24:00,46.0,31.6,30.09,ENE,68,6.7,6.7,57,0.00,,---,0.00,VWS V14.00,2013-03-27 11:24:00,
2013-03-27 07:29:00,45.8,31.9,30.09,NE,45,2.4,7.1,58,0.00,,---,0.00,VWS V14.00,2013-03-27 11:29:00,
2013-03-27 07:34:00,45.8,31.9,30.10,ENE,68,0.4,0.4,58,0.00,,---,0.00,VWS V14.00,2013-03-27 11:34:00,
2013-03-27 07:39:00,45.8,31.9,30.10,NE,45,0.0,0.0,58,0.00,,---,0.00,VWS V14.00,2013-03-27 11:39:00,
2013-03-27 07:44:00,45.6,32.1,30.11,NE,45,5.8,5.8,59,0.00,,---,0.00,VWS V14.00,2013-03-27 11:44:00,
2013-03-27 07:49:00,45.6,32.1,30.11,NE,45,4.4,4.4,59,0.00,,---,0.00,VWS V14.00,2013-03-27 11:49:00,
2013-03-27 07:54:00,45.6,32.1,30.11,NE,45,0.0,0.0,59,0.00,,---,0.00,VWS V14.00,2013-03-27 11:54:00,
2013-03-27 07:59:00,46.0,32.5,30.11,ENE,68,3.3,3.3,59,0.00,,---,0.00,VWS V14.00,2013-03-27 11:59:00,
2013-03-27 08:04:00,46.2,32.7,30.12,ENE,68,8.5,8.5,59,0.00,,---,0.00,VWS V14.00,2013-03-27 12:04:00,
2013-03-27 08:09:00,46.2,32.7,30.11,NE,45,4.9,4.9,59,0.00,,---,0.00,VWS V14.00,2013-03-27 12:09:00,
2013-03-27 08:14:00,46.5,33.0,30.12,NE,45,1.3,1.3,59,0.00,,---,0.00,VWS V14.00,2013-03-27 12:14:00,
2013-03-27 08:19:00,46.5,33.0,30.12,NE,45,9.3,9.3,59,0.00,,---,0.00,VWS V14.00,2013-03-27 12:19:00,
2013-03-27 08:24:00,46.7,33.2,30.12,NNE,22,0.0,0.0,59,0.00,,---,0.00,VWS V14.00,2013-03-27 12:24:00,
2013-03-27 08:29:00,46.7,33.2,30.12,NE,45,2.9,2.9,59,0.00,,---,0.00,VWS V14.00,2013-03-27 12:29:00,
2013-03-27 08:34:00,46.9,33.3,30.12,NE,45,6.9,6.9,59,0.00,,---,0.00,VWS V14.00,2013-03-27 12:34:00,
2013-03-27 08:39:00,46.9,32.9,30.13,NE,45,6.7,6.7,58,0.00,,---,0.00,VWS V14.00,2013-03-27 12:39:00,
2013-03-27 08:44:00,47.1,33.1,30.13,ENE,68,8.5,8.5,58,0.00,,---,0.00,VWS V14.00,2013-03-27 12:44:00,
2013-03-27 08:49:00,47.1,33.1,30.13,East,90,5.1,5.1,58,0.00,,---,0.00,VWS V14.00,2013-03-27 12:49:00,
2013-03-27 08:54:00,47.1,32.7,30.14,NE,45,1.5,1.5,57,0.00,,---,0.00,VWS V14.00,2013-03-27 12:54:00,
2013-03-27 08:59:00,47.3,32.8,30.14,NE,45,0.0,0.0,57,0.00,,---,0.00,VWS V14.00,2013-03-27 12:59:00,
2013-03-27 09:04:00,47.6,33.6,30.14,North,0,1.3,1.3,58,0.00,,---,0.00,VWS V14.00,2013-03-27 13:04:00,
2013-03-27 09:09:00,47.6,33.1,30.14,NNE,22,1.5,1.5,57,0.00,,---,0.00,VWS V14.00,2013-03-27 13:09:00,
2013-03-27 09:14:00,47.6,33.1,30.14,NNE,22,0.0,0.0,57,0.00,,---,0.00,VWS V14.00,2013-03-27 13:14:00,
2013-03-27 09:19:00,47.8,33.3,30.15,NE,45,2.9,2.9,57,0.00,,---,0.00,VWS V14.00,2013-03-27 13:19:00,
2013-03-27 09:24:00,47.8,32.9,30.15,NE,45,0.0,0.0,56,0.00,,---,0.00,VWS V14.00,2013-03-27 13:24:00,
2013-03-27 09:29:00,48.0,33.1,30.15,ENE,68,6.9,6.9,56,0.00,,---,0.00,VWS V14.00,2013-03-27 13:29:00,
2013-03-27 09:34:00,48.3,33.3,30.15,NE,45,0.0,0.0,56,0.00,,---,0.00,VWS V14.00,2013-03-27 13:34:00,
2013-03-27 09:39:00,48.3,33.3,30.15,NE,45,2.0,2.0,56,0.00,,---,0.00,VWS V14.00,2013-03-27 13:39:00,
2013-03-27 09:44:00,48.7,32.8,30.15,NE,45,1.5,1.5,54,0.00,,---,0.00,VWS V14.00,2013-03-27 13:44:00,
2013-03-27 09:49:00,48.7,32.8,30.15,NE,45,1.5,1.5,54,0.00,,---,0.00,VWS V14.00,2013-03-27 13:49:00,
2013-03-27 09:54:00,48.9,33.0,30.15,NE,45,3.1,3.1,54,0.00,,---,0.00,VWS V14.00,2013-03-27 13:54:00,
2013-03-27 09:59:00,49.1,32.7,30.15,ENE,68,3.1,3.1,53,0.00,,---,0.00,VWS V14.00,2013-03-27 13:59:00,
2013-03-27 10:04:00,49.2,32.3,30.15,NNE,22,0.0,0.0,52,0.00,,---,0.00,VWS V14.00,2013-03-27 14:04:00,
2013-03-27 10:09:00,49.6,32.7,30.15,NE,45,4.4,4.4,52,0.00,,---,0.00,VWS V14.00,2013-03-27 14:09:00,
2013-03-27 10:14:00,50.1,33.7,30.15,NE,45,0.0,0.0,53,0.00,,---,0.00,VWS V14.00,2013-03-27 14:14:00,
2013-03-27 10:19:00,50.7,34.2,30.15,WNW,292,3.1,3.1,53,0.00,,---,0.00,VWS V14.00,2013-03-27 14:19:00,
2013-03-27 10:24:00,50.9,33.9,30.15,NE,45,4.6,4.6,52,0.00,,---,0.00,VWS V14.00,2013-03-27 14:24:00,
2013-03-27 10:29:00,51.4,33.9,30.15,ENE,68,2.0,2.0,51,0.00,,---,0.00,VWS V14.00,2013-03-27 14:29:00,
2013-03-27 10:34:00,51.6,33.1,30.15,NE,45,12.5,12.5,49,0.00,,---,0.00,VWS V14.00,2013-03-27 14:34:00,
2013-03-27 10:39:00,51.6,33.1,30.15,NE,45,0.0,0.0,49,0.00,,---,0.00,VWS V14.00,2013-03-27 14:39:00,
2013-03-27 10:44:00,51.6,33.1,30.15,NE,45,1.1,1.1,49,0.00,,---,0.00,VWS V14.00,2013-03-27 14:44:00,
2013-03-27 10:49:00,52.3,33.7,30.16,ENE,68,0.8,0.8,49,0.00,,---,0.00,VWS V14.00,2013-03-27 14:49:00,
2013-03-27 10:54:00,52.5,33.4,30.15,NE,45,4.4,4.4,48,0.00,,---,0.00,VWS V14.00,2013-03-27 14:54:00,
2013-03-27 10:59:00,53.0,33.3,30.15,NNE,22,0.0,0.0,47,0.00,,---,0.00,VWS V14.00,2013-03-27 14:59:00,
2013-03-27 11:04:00,53.4,33.7,30.16,ENE,68,3.3,3.3,47,0.00,,---,0.00,VWS V14.00,2013-03-27 15:04:00,
2013-03-27 11:09:00,53.7,33.4,30.16,NW,315,2.9,2.9,46,0.00,,---,0.00,VWS V14.00,2013-03-27 15:09:00,
2013-03-27 11:14:00,53.7,32.9,30.15,East,90,0.0,0.0,45,0.00,,---,0.00,VWS V14.00,2013-03-27 15:14:00,
2013-03-27 11:19:00,54.3,33.4,30.15,NE,45,4.0,4.0,45,0.00,,---,0.00,VWS V14.00,2013-03-27 15:19:00,
2013-03-27 11:24:00,54.6,33.7,30.15,ENE,68,3.8,3.8,45,0.00,,---,0.00,VWS V14.00,2013-03-27 15:24:00,
2013-03-27 11:29:00,55.0,33.5,30.15,NNE,22,0.0,0.0,44,0.00,,---,0.00,VWS V14.00,2013-03-27 15:29:00,
2013-03-27 11:34:00,55.2,33.7,30.15,ENE,68,0.0,0.0,44,0.00,,---,0.00,VWS V14.00,2013-03-27 15:34:00,
2013-03-27 11:39:00,55.5,34.0,30.15,WNW,292,1.1,1.1,44,0.00,,---,0.00,VWS V14.00,2013-03-27 15:39:00,
2013-03-27 11:44:00,55.9,34.3,30.16,ENE,68,2.6,2.6,44,0.00,,---,0.00,VWS V14.00,2013-03-27 15:44:00,
2013-03-27 11:49:00,56.4,34.2,30.15,NNE,22,4.0,4.0,43,0.00,,---,0.00,VWS V14.00,2013-03-27 15:49:00,
2013-03-27 11:54:00,56.4,34.2,30.15,ENE,68,3.3,3.3,43,0.00,,---,0.00,VWS V14.00,2013-03-27 15:54:00,
2013-03-27 11:59:00,56.4,34.2,30.15,ENE,68,4.4,4.4,43,0.00,,---,0.00,VWS V14.00,2013-03-27 15:59:00,
2013-03-27 12:04:00,56.3,33.5,30.15,NE,45,2.2,2.2,42,0.00,,---,0.00,VWS V14.00,2013-03-27 16:04:00,
2013-03-27 12:09:00,56.1,33.9,30.15,NE,45,1.7,1.7,43,0.00,,---,0.00,VWS V14.00,2013-03-27 16:09:00,
2013-03-27 12:14:00,56.4,34.2,30.15,WNW,292,4.2,4.2,43,0.00,,---,0.00,VWS V14.00,2013-03-27 16:14:00,
2013-03-27 12:19:00,56.8,34.0,30.15,West,270,0.0,0.0,42,0.00,,---,0.00,VWS V14.00,2013-03-27 16:19:00,
2013-03-27 12:24:00,57.2,34.9,30.14,NNW,338,0.0,0.0,43,0.00,,---,0.00,VWS V14.00,2013-03-27 16:24:00,
2013-03-27 12:29:00,57.7,35.4,30.14,NNW,338,0.6,0.6,43,0.00,,---,0.00,VWS V14.00,2013-03-27 16:29:00,
2013-03-27 12:34:00,58.1,36.3,30.14,NNE,22,2.6,2.6,44,0.00,,---,0.00,VWS V14.00,2013-03-27 16:34:00,
2013-03-27 12:39:00,58.4,36.0,30.14,WNW,292,3.3,3.3,43,0.00,,---,0.00,VWS V14.00,2013-03-27 16:39:00,
2013-03-27 12:44:00,58.4,36.0,30.14,NE,45,8.0,8.0,43,0.00,,---,0.00,VWS V14.00,2013-03-27 16:44:00,
2013-03-27 12:49:00,58.6,36.2,30.14,NW,315,5.3,5.3,43,0.00,,---,0.00,VWS V14.00,2013-03-27 16:49:00,
2013-03-27 12:54:00,58.2,35.8,30.14,NNE,22,0.0,0.0,43,0.00,,---,0.00,VWS V14.00,2013-03-27 16:54:00,
2013-03-27 12:59:00,58.2,35.8,30.14,NW,315,3.8,3.8,43,0.00,,---,0.00,VWS V14.00,2013-03-27 16:59:00,
2013-03-27 13:04:00,57.9,36.1,30.13,West,270,2.6,2.6,44,0.00,,---,0.00,VWS V14.00,2013-03-27 17:04:00,
2013-03-27 13:09:00,58.1,36.3,30.13,WNW,292,6.7,6.7,44,0.00,,---,0.00,VWS V14.00,2013-03-27 17:09:00,
2013-03-27 13:14:00,58.4,36.6,30.13,North,0,2.4,2.4,44,0.00,,---,0.00,VWS V14.00,2013-03-27 17:14:00,
2013-03-27 13:19:00,58.8,37.0,30.13,NNW,338,0.8,0.8,44,0.00,,---,0.00,VWS V14.00,2013-03-27 17:19:00,
2013-03-27 13:24:00,58.8,36.4,30.13,NNW,338,0.0,0.0,43,0.00,,---,0.00,VWS V14.00,2013-03-27 17:24:00,
2013-03-27 13:29:00,58.8,37.0,30.13,WNW,292,2.0,2.0,44,0.00,,---,0.00,VWS V14.00,2013-03-27 17:29:00,
2013-03-27 13:34:00,59.5,37.0,30.13,NNW,338,4.2,4.2,43,0.00,,---,0.00,VWS V14.00,2013-03-27 17:34:00,
2013-03-27 13:39:00,59.1,36.7,30.13,ENE,68,3.8,3.8,43,0.00,,---,0.00,VWS V14.00,2013-03-27 17:39:00,
2013-03-27 13:44:00,59.1,36.7,30.12,NNW,338,2.0,2.0,43,0.00,,---,0.00,VWS V14.00,2013-03-27 17:44:00,
2013-03-27 13:49:00,58.8,37.0,30.13,NNW,338,5.1,5.1,44,0.00,,---,0.00,VWS V14.00,2013-03-27 17:49:00,
2013-03-27 13:53:00,58.8,37.0,30.12,NE,45,0.0,0.0,44,0.00,,---,0.00,VWS V14.00,2013-03-27 17:53:00,
2013-03-27 13:58:00,58.8,37.0,30.12,WNW,292,4.0,4.0,44,0.00,,---,0.00,VWS V14.00,2013-03-27 17:58:00,
2013-03-27 14:03:00,58.8,36.4,30.12,NE,45,7.1,7.1,43,0.00,,---,0.00,VWS V14.00,2013-03-27 18:03:00,
2013-03-27 14:08:00,58.8,37.0,30.12,NNW,338,2.2,2.2,44,0.00,,---,0.00,VWS V14.00,2013-03-27 18:08:00,
2013-03-27 14:13:00,58.8,37.0,30.11,NE,45,2.9,2.9,44,0.00,,---,0.00,VWS V14.00,2013-03-27 18:13:00,
2013-03-27 14:18:00,59.0,37.1,30.12,NNW,338,0.0,0.0,44,0.00,,---,0.00,VWS V14.00,2013-03-27 18:18:00,
2013-03-27 14:23:00,58.8,37.5,30.11,NE,45,1.5,1.5,45,0.00,,---,0.00,VWS V14.00,2013-03-27 18:23:00,
2013-03-27 14:28:00,59.3,38.0,30.11,NNW,338,1.7,1.7,45,0.00,,---,0.00,VWS V14.00,2013-03-27 18:28:00,
2013-03-27 14:33:00,59.5,38.2,30.11,NW,315,2.0,2.0,45,0.00,,---,0.00,VWS V14.00,2013-03-27 18:33:00,
2013-03-27 14:38:00,59.5,38.2,30.10,NNW,338,3.5,3.5,45,0.00,,---,0.00,VWS V14.00,2013-03-27 18:38:00,
2013-03-27 14:43:00,59.7,38.3,30.11,NNW,338,3.1,3.1,45,0.00,,---,0.00,VWS V14.00,2013-03-27 18:43:00,
2013-03-27 14:48:00,59.7,38.3,30.10,NW,315,3.1,3.1,45,0.00,,---,0.00,VWS V14.00,2013-03-27 18:48:00,
2013-03-27 14:53:00,59.7,38.3,30.10,North,0,2.9,2.9,45,0.00,,---,0.00,VWS V14.00,2013-03-27 18:53:00,
2013-03-27 14:58:00,59.5,38.2,30.10,WNW,292,5.3,5.3,45,0.00,,---,0.00,VWS V14.00,2013-03-27 18:58:00,
2013-03-27 15:03:00,58.8,37.5,30.10,NW,315,1.7,1.7,45,0.00,,---,0.00,VWS V14.00,2013-03-27 19:03:00,
2013-03-27 15:08:00,58.8,37.5,30.09,North,0,0.0,0.0,45,0.00,,---,0.00,VWS V14.00,2013-03-27 19:08:00,
2013-03-27 15:13:00,59.5,38.7,30.09,North,0,2.2,2.2,46,0.00,,---,0.00,VWS V14.00,2013-03-27 19:13:00,
2013-03-27 15:18:00,59.7,37.8,30.09,North,0,2.6,2.6,44,0.00,,---,0.00,VWS V14.00,2013-03-27 19:18:00,
2013-03-27 15:23:00,59.5,38.2,30.08,NNW,338,1.7,1.7,45,0.00,,---,0.00,VWS V14.00,2013-03-27 19:23:00,
2013-03-27 15:28:00,59.3,37.4,30.08,NNW,338,3.3,3.3,44,0.00,,---,0.00,VWS V14.00,2013-03-27 19:28:00,
2013-03-27 15:33:00,59.1,37.8,30.08,North,0,0.0,0.0,45,0.00,,---,0.00,VWS V14.00,2013-03-27 19:33:00,
2013-03-27 15:38:00,59.5,37.6,30.08,NE,45,7.3,7.3,44,0.00,,---,0.00,VWS V14.00,2013-03-27 19:38:00,
2013-03-27 15:43:00,59.9,38.0,30.08,NNW,338,4.0,4.0,44,0.00,,---,0.00,VWS V14.00,2013-03-27 19:43:00,
2013-03-27 15:48:00,59.7,37.8,30.08,NW,315,4.2,4.2,44,0.00,,---,0.00,VWS V14.00,2013-03-27 19:48:00,
2013-03-27 15:53:00,59.7,38.3,30.08,NNW,338,1.7,1.7,45,0.00,,---,0.00,VWS V14.00,2013-03-27 19:53:00,
2013-03-27 15:58:00,59.5,38.2,30.08,North,0,3.3,3.3,45,0.00,,---,0.00,VWS V14.00,2013-03-27 19:58:00,
2013-03-27 16:03:00,59.5,38.2,30.08,NNW,338,2.2,2.2,45,0.00,,---,0.00,VWS V14.00,2013-03-27 20:03:00,
2013-03-27 16:08:00,59.3,38.0,30.08,North,0,0.0,0.0,45,0.00,,---,0.00,VWS V14.00,2013-03-27 20:08:00,
2013-03-27 16:13:00,58.8,37.5,30.07,ENE,68,0.6,0.6,45,0.00,,---,0.00,VWS V14.00,2013-03-27 20:13:00,
2013-03-27 16:18:00,58.8,37.5,30.07,NNW,338,2.6,2.6,45,0.00,,---,0.00,VWS V14.00,2013-03-27 20:18:00,
2013-03-27 16:23:00,58.8,38.1,30.08,NNW,338,2.2,2.2,46,0.00,,---,0.00,VWS V14.00,2013-03-27 20:23:00,
2013-03-27 16:28:00,58.6,37.9,30.07,NW,315,0.8,0.8,46,0.00,,---,0.00,VWS V14.00,2013-03-27 20:28:00,
2013-03-27 16:33:00,58.2,37.5,30.07,NNW,338,1.5,1.5,46,0.00,,---,0.00,VWS V14.00,2013-03-27 20:33:00,
2013-03-27 16:38:00,57.9,37.3,30.07,North,0,0.0,0.0,46,0.00,,---,0.00,VWS V14.00,2013-03-27 20:38:00,
2013-03-27 16:43:00,57.7,37.6,30.07,NNW,338,6.0,6.0,47,0.00,,---,0.00,VWS V14.00,2013-03-27 20:43:00,
2013-03-27 16:48:00,57.7,38.2,30.07,NNW,338,2.4,2.4,48,0.00,,---,0.00,VWS V14.00,2013-03-27 20:48:00,
2013-03-27 16:53:00,57.9,38.3,30.07,North,0,3.3,3.3,48,0.00,,---,0.00,VWS V14.00,2013-03-27 20:53:00,
2013-03-27 16:58:00,58.1,38.0,30.07,North,0,0.0,0.0,47,0.00,,---,0.00,VWS V14.00,2013-03-27 20:58:00,
2013-03-27 17:03:00,57.9,37.8,30.07,NW,315,3.3,3.3,47,0.00,,---,0.00,VWS V14.00,2013-03-27 21:03:00,
2013-03-27 17:08:00,57.5,37.5,30.07,NNW,338,2.0,2.0,47,0.00,,---,0.00,VWS V14.00,2013-03-27 21:08:00,
2013-03-27 17:13:00,57.0,37.5,30.07,NW,315,2.6,2.6,48,0.00,,---,0.00,VWS V14.00,2013-03-27 21:13:00,
2013-03-27 17:18:00,56.8,37.9,30.07,NW,315,0.8,0.8,49,0.00,,---,0.00,VWS V14.00,2013-03-27 21:18:00,
2013-03-27 17:23:00,56.8,37.9,30.07,North,0,1.1,1.1,49,0.00,,---,0.00,VWS V14.00,2013-03-27 21:23:00,
2013-03-27 17:28:00,57.0,38.0,30.07,North,0,3.8,3.8,49,0.00,,---,0.00,VWS V14.00,2013-03-27 21:28:00,
2013-03-27 17:33:00,57.0,38.0,30.07,NNW,338,2.0,2.0,49,0.00,,---,0.00,VWS V14.00,2013-03-27 21:33:00,
2013-03-27 17:38:00,56.8,37.9,30.07,NNW,338,2.9,2.9,49,0.00,,---,0.00,VWS V14.00,2013-03-27 21:38:00,
2013-03-27 17:43:00,56.4,37.5,30.07,NNW,338,4.4,4.4,49,0.00,,---,0.00,VWS V14.00,2013-03-27 21:43:00,
2013-03-27 17:48:00,56.3,37.9,30.07,NNW,338,0.8,0.8,50,0.00,,---,0.00,VWS V14.00,2013-03-27 21:48:00,
2013-03-27 17:53:00,56.4,38.0,30.06,NNW,338,0.8,0.8,50,0.00,,---,0.00,VWS V14.00,2013-03-27 21:53:00,
2013-03-27 17:58:00,56.3,38.4,30.07,North,0,4.2,4.2,51,0.00,,---,0.00,VWS V14.00,2013-03-27 21:58:00,
2013-03-27 18:03:00,56.1,38.2,30.07,NNW,338,0.8,0.8,51,0.00,,---,0.00,VWS V14.00,2013-03-27 22:03:00,
2013-03-27 18:08:00,56.1,38.7,30.07,NW,315,2.0,2.0,52,0.00,,---,0.00,VWS V14.00,2013-03-27 22:08:00,
2013-03-27 18:13:00,55.9,38.0,30.07,NNW,338,1.3,1.3,51,0.00,,---,0.00,VWS V14.00,2013-03-27 22:13:00,
2013-03-27 18:18:00,55.9,38.5,30.07,North,0,3.8,3.8,52,0.00,,---,0.00,VWS V14.00,2013-03-27 22:18:00,
2013-03-27 18:23:00,55.9,39.0,30.07,North,0,0.0,0.0,53,0.00,,---,0.00,VWS V14.00,2013-03-27 22:23:00,
2013-03-27 18:28:00,56.1,39.2,30.07,NNW,338,2.6,2.6,53,0.00,,---,0.00,VWS V14.00,2013-03-27 22:28:00,
2013-03-27 18:33:00,55.9,39.0,30.07,NW,315,0.0,0.0,53,0.00,,---,0.00,VWS V14.00,2013-03-27 22:33:00,
2013-03-27 18:38:00,55.9,39.0,30.07,WNW,292,3.5,3.5,53,0.00,,---,0.00,VWS V14.00,2013-03-27 22:38:00,
2013-03-27 18:43:00,55.9,39.0,30.07,NNW,338,2.2,2.2,53,0.00,,---,0.00,VWS V14.00,2013-03-27 22:43:00,
2013-03-27 18:48:00,55.7,38.8,30.07,ENE,68,1.3,1.3,53,0.00,,---,0.00,VWS V14.00,2013-03-27 22:48:00,
2013-03-27 18:53:00,55.5,38.7,30.07,East,90,0.0,0.0,53,0.00,,---,0.00,VWS V14.00,2013-03-27 22:53:00,
2013-03-27 18:58:00,55.5,38.7,30.07,NNW,338,2.6,2.6,53,0.00,,---,0.00,VWS V14.00,2013-03-27 22:58:00,
2013-03-27 19:03:00,55.2,38.9,30.07,NW,315,0.8,0.8,54,0.00,,---,0.00,VWS V14.00,2013-03-27 23:03:00,
2013-03-27 19:08:00,55.2,38.9,30.07,NW,315,3.1,3.1,54,0.00,,---,0.00,VWS V14.00,2013-03-27 23:08:00,
2013-03-27 19:13:00,55.4,39.0,30.07,NW,315,0.6,0.6,54,0.00,,---,0.00,VWS V14.00,2013-03-27 23:13:00,
2013-03-27 19:18:00,55.0,38.7,30.06,North,0,0.0,0.0,54,0.00,,---,0.00,VWS V14.00,2013-03-27 23:18:00,
2013-03-27 19:23:00,54.6,38.3,30.06,North,0,0.0,0.0,54,0.00,,---,0.00,VWS V14.00,2013-03-27 23:23:00,
2013-03-27 19:28:00,54.1,38.3,30.06,NNW,338,0.0,0.0,55,0.00,,---,0.00,VWS V14.00,2013-03-27 23:28:00,
2013-03-27 19:33:00,53.7,38.4,30.06,NW,315,0.0,0.0,56,0.00,,---,0.00,VWS V14.00,2013-03-27 23:33:00,
2013-03-27 19:38:00,53.4,38.1,30.06,NNE,22,0.0,0.0,56,0.00,,---,0.00,VWS V14.00,2013-03-27 23:38:00,
2013-03-27 19:43:00,53.2,37.9,30.06,NNW,338,0.0,0.0,56,0.00,,---,0.00,VWS V14.00,2013-03-27 23:43:00,
2013-03-27 19:48:00,52.7,37.5,30.06,NNW,338,0.0,0.0,56,0.00,,---,0.00,VWS V14.00,2013-03-27 23:48:00,
2013-03-27 19:53:00,52.3,37.5,30.07,NNW,338,1.5,1.5,57,0.00,,---,0.00,VWS V14.00,2013-03-27 23:53:00,
2013-03-27 19:58:00,52.1,37.3,30.07,NNW,338,0.0,0.0,57,0.00,,---,0.00,VWS V14.00,2013-03-27 23:58:00,
2013-03-27 20:03:00,51.9,37.6,30.07,NNW,338,1.1,1.1,58,0.00,,---,0.00,VWS V14.00,2013-03-28 00:03:00,
2013-03-27 20:08:00,51.8,37.5,30.07,North,0,0.0,0.0,58,0.00,,---,0.00,VWS V14.00,2013-03-28 00:08:00,
2013-03-27 20:13:00,51.6,37.3,30.07,North,0,0.0,0.0,58,0.00,,---,0.00,VWS V14.00,2013-03-28 00:13:00,
2013-03-27 20:18:00,51.6,37.8,30.07,NNW,338,0.0,0.0,59,0.00,,---,0.00,VWS V14.00,2013-03-28 00:18:00,
2013-03-27 20:23:00,51.6,37.8,30.08,NNW,338,0.0,0.0,59,0.00,,---,0.00,VWS V14.00,2013-03-28 00:23:00,
2013-03-27 20:27:00,51.4,37.6,30.08,NNW,338,0.0,0.0,59,0.00,,---,0.00,VWS V14.00,2013-03-28 00:27:00,
2013-03-27 20:32:00,51.2,37.8,30.08,NNW,338,0.0,0.0,60,0.00,,---,0.00,VWS V14.00,2013-03-28 00:32:00,
2013-03-27 20:37:00,51.2,37.8,30.08,NE,45,0.0,0.0,60,0.00,,---,0.00,VWS V14.00,2013-03-28 00:37:00,
2013-03-27 20:43:00,51.4,38.0,30.08,NE,45,0.0,0.0,60,0.00,,---,0.00,VWS V14.00,2013-03-28 00:43:00,
2013-03-27 20:47:00,51.2,37.8,30.08,NE,45,0.0,0.0,60,0.00,,---,0.00,VWS V14.00,2013-03-28 00:47:00,
2013-03-27 20:52:00,51.0,37.6,30.08,ENE,68,0.0,0.0,60,0.00,,---,0.00,VWS V14.00,2013-03-28 00:52:00,
2013-03-27 20:57:00,51.2,38.2,30.08,ENE,68,0.0,0.0,61,0.00,,---,0.00,VWS V14.00,2013-03-28 00:57:00,
2013-03-27 21:02:00,51.2,38.2,30.08,ENE,68,0.0,0.0,61,0.00,,---,0.00,VWS V14.00,2013-03-28 01:02:00,
2013-03-27 21:07:00,51.0,38.0,30.08,ENE,68,0.0,0.0,61,0.00,,---,0.00,VWS V14.00,2013-03-28 01:07:00,
2013-03-27 21:12:00,50.9,38.0,30.08,ENE,68,0.0,0.0,61,0.00,,---,0.00,VWS V14.00,2013-03-28 01:12:00,
2013-03-27 21:17:00,50.7,37.8,30.08,ENE,68,0.0,0.0,61,0.00,,---,0.00,VWS V14.00,2013-03-28 01:17:00,
2013-03-27 21:22:00,50.5,37.6,30.08,ENE,68,0.0,0.0,61,0.00,,---,0.00,VWS V14.00,2013-03-28 01:22:00,
2013-03-27 21:27:00,50.5,38.0,30.08,ENE,68,0.0,0.0,62,0.00,,---,0.00,VWS V14.00,2013-03-28 01:27:00,
2013-03-27 21:32:00,50.5,38.0,30.08,ENE,68,0.0,0.0,62,0.00,,---,0.00,VWS V14.00,2013-03-28 01:32:00,
2013-03-27 21:37:00,50.5,38.0,30.08,ENE,68,0.0,0.0,62,0.00,,---,0.00,VWS V14.00,2013-03-28 01:37:00,
2013-03-27 21:42:00,50.3,37.8,30.08,ENE,68,0.0,0.0,62,0.00,,---,0.00,VWS V14.00,2013-03-28 01:42:00,
2013-03-27 21:47:00,50.1,38.0,30.08,ENE,68,0.0,0.0,63,0.00,,---,0.00,VWS V14.00,2013-03-28 01:47:00,
2013-03-27 21:52:00,49.8,37.7,30.09,ENE,68,0.0,0.0,63,0.00,,---,0.00,VWS V14.00,2013-03-28 01:52:00,
2013-03-27 21:57:00,49.8,37.7,30.09,ENE,68,0.0,0.0,63,0.00,,---,0.00,VWS V14.00,2013-03-28 01:57:00,
2013-03-27 22:02:00,49.6,37.9,30.09,ENE,68,0.0,0.0,64,0.00,,---,0.00,VWS V14.00,2013-03-28 02:02:00,
2013-03-27 22:07:00,49.2,37.6,30.09,ENE,68,0.0,0.0,64,0.00,,---,0.00,VWS V14.00,2013-03-28 02:07:00,
2013-03-27 22:12:00,49.2,37.6,30.10,ENE,68,0.0,0.0,64,0.00,,---,0.00,VWS V14.00,2013-03-28 02:12:00,
2013-03-27 22:17:00,48.9,37.3,30.10,ENE,68,0.0,0.0,64,0.00,,---,0.00,VWS V14.00,2013-03-28 02:17:00,
2013-03-27 22:22:00,48.7,37.5,30.09,ENE,68,0.0,0.0,65,0.00,,---,0.00,VWS V14.00,2013-03-28 02:22:00,
2013-03-27 22:27:00,48.5,37.3,30.10,ENE,68,0.0,0.0,65,0.00,,---,0.00,VWS V14.00,2013-03-28 02:27:00,
2013-03-27 22:32:00,48.3,37.1,30.09,ENE,68,0.0,0.0,65,0.00,,---,0.00,VWS V14.00,2013-03-28 02:32:00,
2013-03-27 22:37:00,48.0,37.2,30.10,ENE,68,0.0,0.0,66,0.00,,---,0.00,VWS V14.00,2013-03-28 02:37:00,
2013-03-27 22:42:00,48.0,37.2,30.10,ENE,68,0.0,0.0,66,0.00,,---,0.00,VWS V14.00,2013-03-28 02:42:00,
2013-03-27 22:47:00,48.0,37.6,30.10,ENE,68,0.0,0.0,67,0.00,,---,0.00,VWS V14.00,2013-03-28 02:47:00,
2013-03-27 22:52:00,47.8,37.4,30.10,ENE,68,0.0,0.0,67,0.00,,---,0.00,VWS V14.00,2013-03-28 02:52:00,
2013-03-27 22:57:00,47.6,37.2,30.10,ENE,68,0.0,0.0,67,0.00,,---,0.00,VWS V14.00,2013-03-28 02:57:00,
2013-03-27 23:02:00,47.4,37.0,30.10,ENE,68,0.0,0.0,67,0.00,,---,0.00,VWS V14.00,2013-03-28 03:02:00,
2013-03-27 23:07:00,47.4,37.0,30.10,ENE,68,0.0,0.0,67,0.00,,---,0.00,VWS V14.00,2013-03-28 03:07:00,
2013-03-27 23:12:00,47.3,37.3,30.10,ENE,68,0.0,0.0,68,0.00,,---,0.00,VWS V14.00,2013-03-28 03:12:00,
2013-03-27 23:17:00,47.1,37.1,30.10,ENE,68,0.0,0.0,68,0.00,,---,0.00,VWS V14.00,2013-03-28 03:17:00,
2013-03-27 23:22:00,47.1,37.1,30.10,ENE,68,0.0,0.0,68,0.00,,---,0.00,VWS V14.00,2013-03-28 03:22:00,
2013-03-27 23:27:00,47.1,37.1,30.10,ENE,68,0.0,0.0,68,0.00,,---,0.00,VWS V14.00,2013-03-28 03:27:00,
2013-03-27 23:32:00,46.9,37.3,30.10,ENE,68,0.0,0.0,69,0.00,,---,0.00,VWS V14.00,2013-03-28 03:32:00,
2013-03-27 23:37:00,46.9,37.3,30.10,ENE,68,0.0,0.0,69,0.00,,---,0.00,VWS V14.00,2013-03-28 03:37:00,
2013-03-27 23:42:00,46.5,36.9,30.09,ENE,68,0.0,0.0,69,0.00,,---,0.00,VWS V14.00,2013-03-28 03:42:00,
2013-03-27 23:47:00,46.5,36.9,30.09,ENE,68,0.0,0.0,69,0.00,,---,0.00,VWS V14.00,2013-03-28 03:47:00,
2013-03-27 23:52:00,46.5,37.3,30.09,ENE,68,0.0,0.0,70,0.00,,---,0.00,VWS V14.00,2013-03-28 03:52:00,
2013-03-27 23:57:00,46.5,37.3,30.08,ENE,68,0.0,0.0,70,0.00,,---,0.00,VWS V14.00,2013-03-28 03:57:00,